Thedford, NE

2:58 PM CDT on June 23, 2017 (GMT -0500)
Thedford

Weather History for KTIF - October, 2013

Change the Weather History Date:

Tuesday, October 1, 2013

  Actual Average (KANW) Record (KANW)
Temperature  
Mean Temperature 60 °F -  
Max Temperature 76 °F 65 °F 91 °F (1997)
Min Temperature 44 °F 41 °F 30 °F (1999)
Degree Days  
Heating Degree Days 5    
Growing Degree Days 10 (Base 50)    
Moisture  
Dew Point 36 °F    
Average Humidity 46    
Maximum Humidity 78    
Minimum Humidity 17    
Precipitation  
Precipitation 0.03 in - - ()
Sea Level Pressure  
Sea Level Pressure 29.98 in    
Wind  
Wind Speed 6 mph (ENE)    
Max Wind Speed 10 mph    
Max Gust Speed 20 mph    
Visibility 10 miles    
Events Thunderstorm    
Averages and records for this station are not official NWS values.
T = Trace of Precipitation, MM = Missing Value Source: NWS Daily Summary

Daily Weather History Graph

Daily Weather History Graph

Search for Another Location

Airport or City:

Trip Planner

Search our weather history database for the weather conditions in past years. The results will help you decide how hot, cold, wet, or windy it might be!

Date:

Astronomy

Oct. 01, 2013 Rise Set
Actual Time 7:39 AM CDT 7:23 PM CDT
Civil Twilight 7:11 AM CDT 7:51 PM CDT
Nautical Twilight 6:39 AM CDT 8:23 PM CDT
Astronomical Twilight 6:06 AM CDT 8:56 PM CDT
Moon 4:12 AM CDT (10/1) 5:30 PM CDT (10/1)
Length of Visible Light 12h 39m
Length of Day
11h 43m
Waning Crescent, 12% of the Moon is Illuminated
Oct 1
Waning Crescent
Oct 4
New
Oct 11
First Quarter
Oct 18
Full
Oct 26
Last Quarter

Hourly Weather History & Observations

Time (CDT) Temp. Windchill Dew Point Humidity Pressure Visibility Wind Dir Wind Speed Gust Speed Precip Events Conditions
12:15 AM 68.7 °F - 41.2 °F 37% 29.83 in 10.0 mi West 8.1 mph 16.1 mph N/A   Clear
12:35 AM 65.5 °F - 42.8 °F 44% 29.84 in 10.0 mi North 6.9 mph 19.6 mph N/A   Clear
12:55 AM 61.3 °F - 45.3 °F 56% 29.86 in 10.0 mi NNW 10.4 mph 18.4 mph N/A   Clear
1:15 AM 58.8 °F - 45.7 °F 62% 29.86 in 10.0 mi NNW 4.6 mph - N/A   Clear
1:35 AM 57.2 °F - 45.5 °F 65% 29.87 in 10.0 mi NNW 8.1 mph - N/A   Clear
1:55 AM 55.4 °F - 45.1 °F 68% 29.87 in 10.0 mi NW 4.6 mph - N/A   Clear
2:15 AM 53.8 °F - 44.6 °F 71% 29.88 in 10.0 mi NW 5.8 mph - N/A   Clear
2:35 AM 52.7 °F - 44.6 °F 74% 29.89 in 10.0 mi NW 4.6 mph - N/A   Clear
2:55 AM 51.4 °F - 44.1 °F 76% 29.90 in 10.0 mi NW 3.5 mph - N/A   Clear
3:15 AM 51.3 °F - 43.5 °F 75% 29.90 in 10.0 mi West 3.5 mph - N/A   Clear
3:35 AM 50.5 °F - 42.8 °F 75% 29.91 in 10.0 mi WNW 4.6 mph - N/A   Clear
3:55 AM 49.6 °F - 42.4 °F 76% 29.91 in 10.0 mi WNW 5.8 mph - N/A   Clear
4:15 AM 48.2 °F - 41.7 °F 78% 29.91 in 10.0 mi WNW 6.9 mph - N/A   Clear
4:35 AM 48.9 °F - 41.0 °F 74% 29.92 in 10.0 mi West 5.8 mph - N/A   Clear
4:55 AM 48.4 °F - 40.3 °F 74% 29.93 in 10.0 mi WNW 6.9 mph - N/A   Clear
5:15 AM 48.4 °F - 39.6 °F 72% 29.94 in 10.0 mi WNW 5.8 mph - N/A   Clear
5:35 AM 47.7 °F - 39.2 °F 72% 29.95 in 10.0 mi WNW 5.8 mph - N/A   Clear
5:55 AM 47.3 °F - 38.5 °F 71% 29.96 in 10.0 mi WNW 4.6 mph - N/A   Clear
6:15 AM 47.3 °F - 37.9 °F 70% 29.96 in 10.0 mi WNW 3.5 mph - N/A   Clear
6:35 AM 46.8 °F - 37.8 °F 71% 29.97 in 10.0 mi WNW 3.5 mph - N/A   Clear
6:55 AM 45.5 °F 42.5 °F 37.6 °F 74% 29.98 in 10.0 mi WNW 5.8 mph - N/A   Clear
7:15 AM 45.3 °F 44.0 °F 37.6 °F 74% 29.99 in 10.0 mi WNW 3.5 mph - N/A   Clear
7:35 AM 44.6 °F 42.2 °F 37.4 °F 76% 29.99 in 10.0 mi West 4.6 mph - N/A   Clear
7:55 AM 45.1 °F 42.0 °F 37.2 °F 74% 30.00 in 10.0 mi WNW 5.8 mph - N/A   Clear
8:15 AM 44.4 °F 42.9 °F 37.8 °F 77% 30.01 in 10.0 mi WNW 3.5 mph - N/A   Clear
8:35 AM 46.4 °F 44.3 °F 38.7 °F 74% 30.02 in 10.0 mi WNW 4.6 mph - N/A   Clear
8:55 AM 49.5 °F - 38.8 °F 67% 30.03 in 10.0 mi WNW 5.8 mph - N/A   Clear
9:15 AM 52.3 °F - 38.8 °F 60% 30.03 in 10.0 mi Calm Calm - N/A   Clear
9:35 AM 55.8 °F - 38.8 °F 53% 30.04 in 10.0 mi NNW 3.5 mph - N/A   Clear
9:55 AM 57.2 °F - 36.3 °F 46% 30.04 in 10.0 mi North 3.5 mph - N/A   Clear
10:15 AM 61.7 °F - 32.0 °F 33% 30.05 in 10.0 mi NNE 5.8 mph - N/A   Clear
10:35 AM 63.7 °F - 30.0 °F 28% 30.05 in 10.0 mi NNE 9.2 mph - N/A   Clear
10:55 AM 64.9 °F - 29.5 °F 26% 30.05 in 10.0 mi NNE 8.1 mph - N/A   Clear
11:15 AM 65.7 °F - 28.4 °F 25% 30.05 in 10.0 mi NE 8.1 mph - N/A   Clear
11:35 AM 67.1 °F - 27.9 °F 23% 30.05 in 10.0 mi NE 8.1 mph - N/A   Clear
11:55 AM 67.3 °F - 27.0 °F 22% 30.06 in 10.0 mi ENE 4.6 mph - N/A   Clear
12:15 PM 68.2 °F - 26.2 °F 21% 30.05 in 10.0 mi ENE 4.6 mph - N/A   Clear
12:35 PM 69.3 °F - 26.4 °F 20% 30.05 in 10.0 mi East 6.9 mph - N/A   Clear
12:55 PM 70.2 °F - 26.8 °F 20% 30.05 in 10.0 mi East 8.1 mph - N/A   Clear
1:15 PM 70.0 °F - 26.6 °F 20% 30.04 in 10.0 mi ENE 8.1 mph - N/A   Clear
1:35 PM 72.0 °F - 26.1 °F 18% 30.03 in 10.0 mi East 5.8 mph - N/A   Clear
1:55 PM 72.3 °F - 25.7 °F 18% 30.03 in 10.0 mi Calm Calm - N/A   Clear
2:15 PM 72.1 °F - 26.2 °F 18% 30.02 in 10.0 mi ESE 5.8 mph - N/A   Clear
2:35 PM 72.9 °F - 27.0 °F 18% 30.01 in 10.0 mi Calm Calm - N/A   Clear
2:55 PM 73.2 °F - 27.0 °F 18% 30.01 in 10.0 mi SE 8.1 mph - N/A   Clear
3:15 PM 73.4 °F - 26.8 °F 18% 30.00 in 10.0 mi East 3.5 mph - N/A   Clear
3:35 PM 73.8 °F - 27.5 °F 18% 30.00 in 10.0 mi ESE 4.6 mph - N/A   Clear
3:55 PM 74.8 °F - 27.5 °F 17% 29.99 in 10.0 mi ESE 4.6 mph - 0.03 in Thunderstorm Thunderstorm
4:15 PM 76.1 °F - 28.8 °F 18% 29.99 in 10.0 mi ESE 10.4 mph - N/A   Clear
4:35 PM 75.4 °F - 28.6 °F 18% 29.98 in 10.0 mi SSE 9.2 mph - N/A   Clear
4:55 PM 74.8 °F - 30.0 °F 19% 29.98 in 10.0 mi SSE 9.2 mph - N/A   Clear
5:15 PM 75.4 °F - 30.2 °F 19% 29.98 in 10.0 mi SE 8.1 mph - N/A   Clear
5:35 PM 74.7 °F - 31.1 °F 20% 29.98 in 10.0 mi SSE 6.9 mph - N/A   Clear
5:55 PM 73.9 °F - 32.0 °F 21% 29.98 in 10.0 mi SE 8.1 mph - N/A   Clear
6:15 PM 73.8 °F - 32.4 °F 22% 29.98 in 10.0 mi SE 9.2 mph - N/A   Clear
6:35 PM 72.5 °F - 32.9 °F 23% 29.98 in 10.0 mi SE 9.2 mph - N/A   Clear
6:55 PM 70.7 °F - 33.4 °F 25% 29.98 in 10.0 mi SE 5.8 mph - N/A   Clear
7:15 PM 67.6 °F - 34.0 °F 29% 29.98 in 10.0 mi SE 4.6 mph - N/A   Clear
7:35 PM 64.2 °F - 35.2 °F 34% 29.98 in 10.0 mi SE 4.6 mph - N/A   Clear
7:55 PM 61.0 °F - 36.7 °F 40% 29.98 in 10.0 mi SE 4.6 mph - N/A   Clear
8:15 PM 59.9 °F - 37.4 °F 43% 29.98 in 10.0 mi SE 4.6 mph - N/A   Clear
8:35 PM 59.2 °F - 37.0 °F 44% 29.98 in 10.0 mi SSE 5.8 mph - N/A   Clear
8:55 PM 58.6 °F - 37.0 °F 45% 29.98 in 10.0 mi SSE 5.8 mph - N/A   Clear
9:15 PM 57.4 °F - 37.4 °F 47% 29.98 in 10.0 mi SSE 5.8 mph - N/A   Clear
9:35 PM 57.4 °F - 37.2 °F 47% 29.98 in 10.0 mi SE 5.8 mph - N/A   Clear
9:55 PM 56.3 °F - 37.9 °F 50% 29.99 in 10.0 mi SSE 3.5 mph - N/A   Clear
10:15 PM 56.1 °F - 37.9 °F 51% 29.99 in 10.0 mi SE 4.6 mph - N/A   Clear
10:35 PM 55.4 °F - 38.1 °F 52% 29.99 in 10.0 mi SE 3.5 mph - N/A   Clear
10:55 PM 55.6 °F - 37.9 °F 52% 29.99 in 10.0 mi SE 3.5 mph - N/A   Clear
11:15 PM 54.7 °F - 38.7 °F 55% 29.99 in 10.0 mi SE 3.5 mph - N/A   Clear
11:35 PM 53.8 °F - 39.0 °F 57% 29.98 in 10.0 mi Calm Calm - N/A   Clear
11:55 PM 49.8 °F - 39.6 °F 68% 29.98 in 10.0 mi Calm Calm - N/A   Clear